TimeAFT,TemperatureF,Dew PointF,Humidity,Sea Level PressureIn,VisibilityMPH,Wind Direction,Wind SpeedMPH,Gust SpeedMPH,PrecipitationIn,Events,Conditions,WindDirDegrees,DateUTC
12:20 AM,48.2,28.4,46,30.18,6.2,WNW,4.6,-,N/A,,Scattered Clouds,290,2014-04-12 19:50:00
1:20 AM,46.4,28.4,50,30.15,-9999.0,NNW,4.6,-,N/A,,Clear,340,2014-04-12 20:50:00
2:20 AM,48.2,26.6,43,30.12,-9999.0,NNW,10.4,-,N/A,,Clear,340,2014-04-12 21:50:00
3:20 AM,50.0,21.2,32,30.12,-9999.0,North,17.3,-,N/A,,Clear,350,2014-04-12 22:50:00
4:20 AM,46.4,21.2,37,30.12,-9999.0,North,5.8,-,N/A,,Clear,10,2014-04-12 23:50:00
5:20 AM,46.4,23.0,40,30.15,-9999.0,SW,3.5,-,N/A,,Clear,230,2014-04-13 00:50:00
6:20 AM,50.0,24.8,37,30.15,-9999.0,NW,4.6,-,N/A,,Clear,310,2014-04-13 01:50:00
7:20 AM,53.6,24.8,33,30.18,-9999.0,West,5.8,-,N/A,,Clear,280,2014-04-13 02:50:00
8:20 AM,55.4,24.8,31,30.18,-9999.0,North,8.1,-,N/A,,Clear,350,2014-04-13 03:50:00
9:20 AM,55.4,24.8,31,30.18,-9999.0,NNE,6.9,-,N/A,,Clear,20,2014-04-13 04:50:00
10:20 AM,59.0,21.2,23,30.18,-9999.0,East,6.9,-,N/A,,Clear,100,2014-04-13 05:50:00
11:20 AM,60.8,19.4,20,30.18,-9999.0,NNE,5.8,-,N/A,,Clear,30,2014-04-13 06:50:00
12:20 PM,60.8,21.2,22,30.18,-9999.0,North,5.8,-,N/A,,Clear,360,2014-04-13 07:50:00
1:20 PM,62.6,21.2,20,30.15,-9999.0,NNW,9.2,-,N/A,,Clear,330,2014-04-13 08:50:00
2:20 PM,62.6,21.2,20,30.15,-9999.0,North,9.2,-,N/A,,Clear,350,2014-04-13 09:50:00
3:20 PM,64.4,23.0,21,30.09,-9999.0,North,17.3,-,N/A,,Clear,350,2014-04-13 10:50:00
4:20 PM,62.6,19.4,19,30.09,-9999.0,North,13.8,-,N/A,,Clear,350,2014-04-13 11:50:00
5:20 PM,60.8,17.6,19,30.09,-9999.0,North,15.0,-,N/A,,Clear,360,2014-04-13 12:50:00
6:20 PM,59.0,17.6,20,30.12,-9999.0,North,13.8,-,N/A,,Clear,360,2014-04-13 13:50:00
7:20 PM,57.2,17.6,21,30.12,-9999.0,North,15.0,-,N/A,,Clear,360,2014-04-13 14:50:00
8:20 PM,55.4,17.6,23,30.15,-9999.0,North,17.3,-,N/A,,Clear,360,2014-04-13 15:50:00
9:20 PM,55.4,19.4,25,30.15,-9999.0,North,18.4,-,N/A,,Clear,360,2014-04-13 16:50:00
10:20 PM,53.6,19.4,26,30.18,-9999.0,North,9.2,-,N/A,,Clear,360,2014-04-13 17:50:00
11:20 PM,51.8,21.2,30,30.18,-9999.0,SSW,5.8,-,N/A,,Clear,200,2014-04-13 18:50:00